Content
SEND FEEDBACK

Daily
Averages
Monthly
Summary
United States of America

TRUCKEE, CALIFORNIA


Home > North America > United States > California
Elevation: 5966 feet     Latitude: 39 20N     Longitude: 120 11W

WEATHER
 
SELECT A DAY
Number of Records: 281,993;   Date Range: 1/1/95 - 7/7/14
 
SHARE

PRINT THIS DATA

[ ← Previous Day ]
WEATHER ALMANAC - APRIL 21, 2013
[ Next Day → ]
[ °C ]   °F
Weather ElementAverageHighLow
Temperature45.2 °F68 °F (2:50 pm)26.6 °F (4:55 am)
Dewpoint31.1 °F35.6 °F (5:45 pm)23 °F (11:55 am)
Humidity66.1 %100 % (3:35 am)20 % (2:50 pm)
Barometer30.20 in30.25 in (7:55 am)30.14 in (3:55 pm)
Wind Speed4.4 mph16.1 mph (3:55 pm)
Wind Gust23 mph (3:55 pm)
Weather ElementAverage
Visibility7.9 mi
Wind DirectionESE (106.4 °)

Weather ElementTotal
Precipitation---
Heating Degree Days17.7 (Base 65)
Averaged from 44 records on April 21, 2013
WEATHER CONDITIONS BREAKOUT
WIND DIRECTION BREAKOUT
WEATHER BY HOUR - APRIL 21, 2013
[ °C ]   °F
Local TimeTemperatureDewpointHumidityBarometerVisibilityWind DirectionWind SpeedGust SpeedPrecipitationEventsConditions
2:35 AM30.2 °F28.4 °F93 %30.21 in10.0 miCalmClear
2:55 AM32.0 °F30.2 °F93 %30.21 in10.0 miCalmClear
3:15 AM32.0 °F30.2 °F93 %30.21 in1.8 miCalmClear
3:35 AM28.4 °F28.4 °F100 %30.21 in1.0 miCalmClear
3:55 AM28.4 °F26.6 °F93 %30.20 in0.2 miCalmFogLight Freezing Fog
4:15 AM28.4 °F28.4 °F100 %30.20 in3.0 miCalmClear
4:35 AM28.4 °F28.4 °F100 %30.21 in10.0 miCalmClear
4:55 AM26.6 °F24.8 °F93 %30.21 in4.0 miCalmClear
5:15 AM26.6 °F26.6 °F100 %30.21 in0.5 miCalmFogLight Freezing Fog
5:35 AM26.6 °F26.6 °F100 %30.21 in0.2 miCalmFogLight Freezing Fog
5:55 AM26.6 °F24.8 °F93 %30.21 in0.2 miCalmFogLight Freezing Fog
6:15 AM26.6 °F26.6 °F100 %30.22 in0.2 miSouth (190°)3.5 mphFogLight Freezing Fog
6:35 AM26.6 °F24.8 °F93 %30.22 in0.2 miCalmFogLight Freezing Fog
6:50 AM26.6 °F24.8 °F93 %30.23 in10.0 miCalmPartly Cloudy
7:55 AM32.0 °F32.0 °F100 %30.25 in10.0 miCalmClear
8:45 AM37.4 °F30.2 °F75 %30.24 in10.0 miCalmPartly Cloudy
9:50 AM48.2 °F32.0 °F54 %30.23 in10.0 miNNW (340°)3.5 mphPartly Cloudy
10:55 AM55.4 °F26.6 °F33 %30.23 in10.0 miNorth (10°)4.6 mphScattered Clouds
11:55 AM59.0 °F23.0 °F25 %30.22 in10.0 miNE (40°)4.6 mphScattered Clouds
12:50 PM62.6 °F24.8 °F24 %30.19 in10.0 miNE (40°)4.6 mphScattered Clouds
1:50 PM66.2 °F26.6 °F23 %30.17 in10.0 miNE (50°)11.5 mph17.3 mphScattered Clouds
2:50 PM68.0 °F24.8 °F20 %30.15 in10.0 miNNE (30°)6.9 mphScattered Clouds
3:55 PM68.0 °F26.6 °F21 %30.14 in10.0 miWest (260°)16.1 mph23.0 mphScattered Clouds
4:50 PM68.0 °F32.0 °F26 %30.14 in10.0 miWSW (240°)12.7 mph20.7 mphScattered Clouds
5:45 PM66.2 °F35.6 °F32 %30.14 in10.0 miWSW (250°)15.0 mph20.7 mphScattered Clouds
5:55 PM64.4 °F35.6 °F34 %30.14 in10.0 miWest (270°)15.0 mph19.6 mphClear
6:15 PM64.4 °F35.6 °F34 %30.15 in10.0 miWest (280°)12.7 mph19.6 mphClear
6:35 PM62.6 °F35.6 °F37 %30.15 in10.0 miWest (280°)11.5 mph19.6 mphClear
6:55 PM60.8 °F35.6 °F39 %30.15 in10.0 miWest (260°)10.4 mph21.9 mphClear
7:15 PM59.0 °F35.6 °F42 %30.15 in10.0 miWest (260°)9.2 mphClear
7:35 PM57.2 °F35.6 °F44 %30.16 in10.0 miWSW (250°)9.2 mphClear
7:55 PM55.4 °F35.6 °F47 %30.17 in10.0 miWSW (250°)9.2 mphClear
8:15 PM55.4 °F35.6 °F47 %30.18 in10.0 miWSW (250°)5.8 mphClear
8:35 PM53.6 °F35.6 °F51 %30.19 in8.0 miSW (230°)4.6 mphClear
8:55 PM50.0 °F35.6 °F58 %30.19 in10.0 miEast (100°)3.5 mphClear
9:15 PM48.2 °F35.6 °F62 %30.20 in10.0 miESE (120°)3.5 mphClear
9:35 PM44.6 °F35.6 °F71 %30.21 in10.0 miSSE (150°)3.5 mphClear
9:55 PM42.8 °F35.6 °F76 %30.22 in10.0 miSouth (190°)4.6 mphClear
10:15 PM42.8 °F35.6 °F76 %30.21 in10.0 miCalmClear
10:35 PM41.0 °F35.6 °F81 %30.22 in10.0 miCalmClear
10:55 PM41.0 °F33.8 °F76 %30.21 in10.0 miSouth (190°)3.5 mphClear
11:15 PM41.0 °F35.6 °F81 %30.21 in10.0 miCalmClear
11:35 PM39.2 °F35.6 °F87 %30.21 in10.0 miSSE (150°)4.6 mphClear
11:55 PM39.2 °F35.6 °F87 %30.21 in10.0 miCalmClear
Hourly data recorded from KTRK, located miles away from Truckee, California







STORIES FROM OUR PARTNERS